This is the latest recevied weather packets stored in our database for station/object F4BQN-15. If no packets are shown the sender has not sent any weather packets the latest 10 day(s).
| Time | Temp. | Humidity | Pressure | Rain* | Wind** | Luminosity | Snow |
|---|---|---|---|---|---|---|---|
| 1777559471 | 23.89° C | 29% | 990.7 hPa | - | - | - | - |
| 1777558570 | 23.89° C | 28% | 990.7 hPa | - | - | - | - |
| 1777557670 | 24.44° C | 29% | 990.6 hPa | - | - | - | - |
| 1777556770 | 25° C | 29% | 990.7 hPa | - | - | - | - |
| 1777555870 | 25.56° C | 28% | 990.6 hPa | - | - | - | - |
| 1777554969 | 27.22° C | 28% | 990.4 hPa | - | - | - | - |
| 1777554070 | 28.33° C | 26% | 990.3 hPa | - | - | - | - |
| 1777553167 | 26.67° C | 27% | 990.2 hPa | - | - | - | - |
| 1777552267 | 26.11° C | 27% | 990.2 hPa | - | - | - | - |
| 1777551367 | 26.11° C | 27% | 990 hPa | - | - | - | - |
| 1777550467 | 26.11° C | 27% | 990 hPa | - | - | - | - |
| 1777549566 | 28.33° C | 26% | 990.2 hPa | - | - | - | - |
| 1777548666 | 28.33° C | 26% | 990.1 hPa | - | - | - | - |
| 1777547766 | 28.33° C | 26% | 990 hPa | - | - | - | - |
| 1777546863 | 26.67° C | 26% | 989.9 hPa | - | - | - | - |
| 1777545941 | 26.11° C | 26% | 989.8 hPa | - | - | - | - |
| 1777545041 | 25.56° C | 26% | 989.8 hPa | - | - | - | - |
| 1777544140 | 25.56° C | 25% | 989.8 hPa | - | - | - | - |
| 1777543240 | 25° C | 26% | 989.7 hPa | - | - | - | - |
| 1777542340 | 24.44° C | 26% | 989.7 hPa | - | - | - | - |
| 1777541440 | 23.89° C | 26% | 989.8 hPa | - | - | - | - |
| 1777540540 | 23.33° C | 27% | 989.7 hPa | - | - | - | - |
| 1777539639 | 22.78° C | 26% | 989.6 hPa | - | - | - | - |
| 1777538739 | 22.78° C | 27% | 989.3 hPa | - | - | - | - |
| 1777537839 | 22.22° C | 27% | 989.4 hPa | - | - | - | - |
* Rain since midnight (hover to see other rain measurements)
** Current wind speed in m/s (hover to see current wind gust speed)